Regional Weather Roundup
Issued by NWS

Home | Current Version | Previous Version | Graphics & Text | Print | Product List | Glossary On
Versions: 1 2 3 4 5 6 7 8 9 10 11 12 13 14 15 16 17 18 19 20 21 22 23 24 25 26 27 28 29 30 31 32 33 34 35 36 37 38 39 40 41 42 43 44 45 46 47 48 49 50
000
ASUS43 KTOP 181208
RWRKS

WEATHER ROUNDUP FOR KANSAS
NATIONAL WEATHER SERVICE GOODLAND KS
600 AM CST THU DEC 18 2014

NOTE:  "FAIR" INDICATES FEW OR NO CLOUDS BELOW 12,000 FEET WITH NO
SIGNIFICANT WEATHER AND/OR OBSTRUCTIONS TO VISIBILITY.

KSZ001>006-013>018-027>032-041>047-181300-
NORTHWEST KANSAS

CITY           SKY/WX    TMP DP  RH WIND       PRES   REMARKS
GOODLAND       MOCLDY    10   7  87 S3        30.04R
6HR MIN TEMP:   9; 6HR MAX TEMP:  25; 6HR PCP:  0.03;

HAYS           CLOUDY    27  18  69 NE6       30.12S
HILL CITY      CLOUDY    26  24  92 E5        30.13S
6HR MIN TEMP:  25; 6HR MAX TEMP:  27; 6HR PCP: TRACE;

RUSSELL        CLOUDY    25  25 100 NE5       30.12S FOG
6HR MIN TEMP:  25; 6HR MAX TEMP:  26; 6HR PCP:  0.02;

$$

KSZ061>065-074>080-084>089-181300-
SOUTHWEST KANSAS

CITY           SKY/WX    TMP DP  RH WIND       PRES   REMARKS
DODGE CITY     CLOUDY    29  27  92 NE5       30.08R FOG
6HR MIN TEMP:  28; 6HR MAX TEMP:  29; 6HR PCP:  0.05;

ELKHART          N/A     30  22  72 NW9         N/A
GARDEN CITY    FOG       28  28 100 E6        30.07R VSB 1
6HR MIN TEMP:  27; 6HR MAX TEMP:  29; 6HR PCP: TRACE;

GREAT BEND     CLOUDY    27  21  80 E5        30.13S
LIBERAL        CLOUDY    34  28  80 NE5       30.07R
PRATT          FOG       28  28 100 NE6       30.12R VSB 3/4
$$

KSZ066>073-081>083-090>101-181300-
SOUTHEAST KANSAS

CITY           SKY/WX    TMP DP  RH WIND       PRES   REMARKS
CHANUTE        LGT SNOW  31  30  96 E6        30.16S FOG
6HR MIN TEMP:  30; 6HR MAX TEMP:  31; 6HR PCP: TRACE;

COFFEYVILLE    CLOUDY    34  33  96 E7        30.16S
6HR MIN TEMP:  32; 6HR MAX TEMP:  34;

HUTCHINSON     CLOUDY    30  27  88 CALM      30.14R
6HR MIN TEMP:  29; 6HR MAX TEMP:  30; 6HR PCP: TRACE;

MEDICINE LODGE   N/A     31  31 100 E5        30.12R
NEWTON         CLOUDY    28  23  80 NE3       30.15R
PARSONS        CLOUDY    33  32  96 VRB5      30.17S
6HR MIN TEMP:  33; 6HR MAX TEMP:  33; 6HR PCP: TRACE;

WICHITA INTL   CLOUDY    32  30  92 NE6       30.14R FOG
6HR MIN TEMP:  31; 6HR MAX TEMP:  32; 6HR PCP:  0.06;

WICHITA JABRA  CLOUDY    30  29  96 CALM      30.14R
6HR MIN TEMP:  29; 6HR MAX TEMP:  30; 6HR PCP:  0.06;

WICHITA MCCONL CLOUDY    30  30  97 NE3       30.14R FOG
WINFIELD       CLOUDY    32  32 100 E5        30.15R
6HR MIN TEMP:  32; 6HR MAX TEMP:  33; 6HR PCP: TRACE;

$$

KSZ007>012-019>026-033>040-048>060-102>105-181300-
NORTHEAST KANSAS

CITY           SKY/WX    TMP DP  RH WIND       PRES   REMARKS
CONCORDIA      CLOUDY    25  24  96 E3        30.16S FOG
6HR MIN TEMP:  25; 6HR MAX TEMP:  25; 6HR PCP:  0.38;

EMPORIA        LGT SNOW  27  27 100 E6        30.16R FOG
6HR MIN TEMP:  27; 6HR MAX TEMP:  28; 6HR PCP: TRACE;

LAWRENCE       LGT SNOW  28  26  92 E7        30.20S FOG
6HR MIN TEMP:  28; 6HR MAX TEMP:  29; 6HR PCP:  0.06;

MANHATTAN      LGT SNOW  27  26  96 NE5       30.18S FOG
6HR MIN TEMP:  27; 6HR MAX TEMP:  27; 6HR PCP:  0.11;

MARYSVILLE     LGT SNOW  27  27 100 CALM      30.19S
OLATHE IND     LGT SNOW  28  27  96 E7        30.19S FOG
6HR MIN TEMP:  28; 6HR MAX TEMP:  28; 6HR PCP:  0.12;

OLATHE EXE     LGT SNOW  29  27  92 NE6       30.18S FOG
6HR MIN TEMP:  28; 6HR MAX TEMP:  29; 6HR PCP:  0.11;

SALINA         LGT SNOW  28  26  92 NE3       30.17R FOG
6HR MIN TEMP:  28; 6HR MAX TEMP:  30; 6HR PCP: TRACE;

TOPEKA BILLARD LGT SNOW  29  27  92 E6        30.21R FOG
6HR MIN TEMP:  29; 6HR MAX TEMP:  30; 6HR PCP:  0.10;

TOPEKA FORBES  LGT SNOW  29  26  89 E5        30.18S FOG
6HR MIN TEMP:  29; 6HR MAX TEMP:  30; 6HR PCP:  0.09;

$$



USA.gov is the U.S. government's official web portal to all federal, state and local government web resources and services.